Terminal Aerodrome Forecast
Issued by NWS Charleston, WV

Current Version | Previous Version | Graphics & Text | Print | Product List | Glossary On
Versions: 1 2 3 4 5 6 7 8 9 10 11 12 13 14 15 16 17 18 19 20 21 22 23 24
000
FTUS41 KRLX 152300
TAFCRW
TAF
KCRW 152323Z 1600/1624 VRB05KT P6SM BKN110
     FM161000 13008KT P6SM OVC060
     FM161500 15009KT P6SM -SHRA OVC060
     FM161900 14007G16KT P6SM OVC110=

USA.gov is the U.S. government's official web portal to all federal, state and local government web resources and services.